Location: Newark
(52.5667°N, 8.8000°W)
Time: 09:20:41
(UTC+00:00)

ISS - Visible Passes

Search period start: 27 January 2020 00:00
Search period end: 06 February 2020 00:00
Orbit: 416 x 423 km, 51.6° (Epoch: 27 January)

Date Brightness Start Highest point End Pass type
(mag) Time Alt. Az. Time Alt. Az. Time Alt. Az.
27 Jan -3.0 18:13:31 10° SW 18:16:47 44° SSE 18:19:21 15° E visible
27 Jan -2.4 19:50:03 10° W 19:52:18 39° WSW 19:52:18 39° WSW visible
28 Jan -3.7 19:02:32 10° WSW 19:05:55 74° S 19:06:44 48° ESE visible
28 Jan -0.4 20:39:18 10° W 20:39:41 13° W 20:39:41 13° W visible
29 Jan -3.5 18:15:01 10° WSW 18:18:24 66° SSE 18:21:08 15° E visible
29 Jan -2.5 19:51:45 10° W 19:54:06 40° W 19:54:06 40° W visible
30 Jan -3.7 19:04:12 10° W 19:07:36 77° S 19:08:31 45° ESE visible
30 Jan -0.4 20:41:01 10° W 20:41:29 13° W 20:41:29 13° W visible
31 Jan -3.7 18:16:39 10° W 18:20:03 78° S 18:22:57 13° E visible
31 Jan -2.4 19:53:26 10° W 19:55:55 39° WSW 19:55:55 39° WSW visible
01 Feb -3.5 19:05:51 10° W 19:09:13 62° SSW 19:10:23 36° SE visible
01 Feb -0.4 20:42:55 10° W 20:43:21 12° W 20:43:21 12° W visible
02 Feb -3.5 18:18:16 10° W 18:21:40 71° S 18:24:54 11° ESE visible
02 Feb -2.1 19:55:10 10° W 19:57:52 29° SW 19:57:52 29° SW visible
03 Feb -2.6 19:07:30 10° W 19:10:42 39° SSW 19:12:28 21° SE visible
04 Feb -3.0 18:19:52 10° W 18:23:11 50° SSW 18:26:28 10° ESE visible
04 Feb -1.2 19:57:16 10° WSW 19:59:27 16° SW 20:00:09 15° SSW visible
05 Feb -1.5 19:09:18 10° W 19:12:01 22° SSW 19:14:43 10° SSE visible
